Lid_Strength_Index
2 2 2 2 2 2 2 2 2 2 2 2 1 1 1 1 1 1 2 0 5 7 6 6 6 8 8 9 12 9 10 9 10 13 14 13 14 12 13 11 12 12 14 14 12 14 16 6 6 10 9 7 8 6
1 1 1 1 2 2 2 2 2 1 1 1 1 1 1 1 1 1 4 0 1 6 6 3 4 4 5 5 7 7 9 9 8 11 11 11 13 12 13 16 10 13 10 12 13 12 6 7 6 6 6 9 10 9
1 1 1 1 1 1 1 1 1 1 1 1 1 1 1 1 1 1 2 1 3 6 7 5 6 4 3 3 2 8 7 6 7 5 8 10 13 11 15 14 13 11 9 11 11 9 9 7 7 7 8 8 9 9
1 1 1 1 1 1 1 1 1 1 1 1 1 1 1 1 1 1 3 1 2 4 9 7 2 4 2 2 3 3 4 3 4 4 7 9 11 9 12 12 12 11 10 11 11 10 9 9 9 8 7 8 9 10
1 1 1 1 1 1 1 1 1 1 1 1 2 2 2 1 1 1 2 1 0 4 8 7 4 3 2 2 3 3 4 5 5 7 8 9 7 9 9 10 13 10 11 12 13 10 10 10 8 9 9 10 9 11
1 1 1 1 1 1 1 1 1 1 2 2 2 2 2 2 1 2 6 1 1 -0 5 9 3 4 3 3 4 4 3 4 4 6 7 6 5 7 11 12 10 9 9 9 10 8 8 8 9 9 10 10 10 10
1 1 1 1 2 2 2 2 3 3 3 3 2 2 2 2 1 5 5 2 1 -1 5 8 8 5 3 3 4 5 4 4 4 6 7 7 6 6 9 13 10 8 8 9 8 8 9 9 10 9 9 9 9 10
2 2 2 2 3 3 3 3 3 3 3 3 3 2 2 2 2 3 1 -0 -1 3 4 10 10 8 4 6 7 4 5 4 5 6 6 7 6 7 12 9 8 7 7 7 7 7 8 8 8 9 9 9 10 10
3 3 3 4 3 3 4 4 4 3 3 3 3 2 2 3 4 3 1 0 -1 3 8 8 11 12 4 6 5 5 4 8 5 8 7 7 9 12 9 8 7 6 6 7 7 7 8 8 8 8 10 10 10 10
4 4 4 4 4 4 4 4 4 3 3 2 2 5 7 3 2 2 4 6 5 5 6 10 7 10 5 7 7 7 6 9 12 9 6 9 10 7 7 6 5 6 6 6 7 8 8 9 8 8 8 8 9 9
4 4 4 4 4 4 4 4 3 3 3 3 6 7 2 2 3 5 8 9 8 10 8 8 8 9 4 8 8 6 9 9 13 11 10 12 14 10 7 7 6 6 5 5 4 5 6 7 7 8 8 8 7 9
4 4 4 4 4 4 4 3 3 2 3 4 4 3 3 5 7 10 11 9 10 11 8 8 7 5 5 4 7 7 10 9 15 8 12 16 12 8 7 7 6 6 7 7 6 6 4 6 7 7 7 8 8 8
5 5 5 4 4 4 3 3 3 3 2 2 5 7 8 7 12 12 14 11 10 7 6 6 7 5 5 4 7 8 11 13 9 14 16 13 10 8 8 8 7 6 6 7 6 6 5 5 6 7 7 7 7 7
5 5 4 4 3 3 3 3 3 2 4 7 8 11 9 11 9 9 9 8 6 5 5 5 7 7 6 8 8 11 10 11 16 18 16 10 9 8 8 8 9 10 9 8 8 6 5 5 6 7 7 6 7 8
4 4 3 3 3 3 3 3 3 1 4 7 6 11 9 6 6 5 5 5 5 4 5 6 6 6 8 9 8 9 14 17 15 14 10 7 7 8 9 9 10 9 8 8 6 5 5 4 6 7 7 6 7 6
4 3 3 2 2 3 3 2 1 1 3 5 6 8 6 7 7 6 6 6 4 4 4 5 8 9 10 9 12 14 16 17 13 10 8 8 8 9 10 10 8 8 8 7 7 5 4 4 6 7 7 6 6 6
3 4 2 2 3 2 1 0 1 4 5 6 7 5 5 6 7 6 5 5 3 5 8 8 11 11 8 12 14 13 14 11 9 8 8 8 9 9 9 8 8 9 7 8 6 4 4 4 6 7 8 7 7 6
3 2 2 2 1 1 -0 0 3 5 7 6 7 6 5 5 5 5 4 4 4 5 6 8 6 11 13 16 14 11 9 9 8 9 8 8 8 7 8 9 7 8 7 7 5 4 4 5 7 7 7 6 6 6
2 1 1 0 -1 1 3 3 2 7 6 5 5 5 5 5 4 3 4 4 3 3 5 7 10 13 13 11 10 9 9 9 9 9 9 8 8 8 8 7 7 8 8 8 6 4 4 5 6 6 6 5 5 5
1 -0 -1 -1 -1 2 5 4 1 6 8 6 5 5 5 5 4 4 4 4 4 5 8 9 11 11 10 8 7 8 8 8 8 10 10 8 7 7 8 7 7 8 7 4 5 6 4 5 5 5 5 5 4 4
0 -1 -1 -1 0 1 3 4 5 5 5 6 5 5 6 5 6 6 6 4 6 7 10 9 9 7 6 6 6 7 7 8 9 9 9 9 7 6 7 7 7 6 5 5 5 6 6 4 3 3 4 3 3 3
-1 -0 -0 -0 3 3 4 3 5 4 5 5 6 5 7 7 6 6 5 6 7 7 7 7 7 6 7 8 8 7 8 8 8 9 9 9 9 8 7 7 8 6 5 5 5 5 6 5 4 3 3 4 5 6
-0 0 1 2 6 6 7 3 6 5 8 7 6 8 7 7 6 4 8 7 7 5 6 6 6 7 8 8 8 8 8 9 9 8 8 8 7 7 6 6 5 6 6 4 4 4 4 8 7 7 6 7 8 9
1 3 6 7 6 8 5 7 5 6 6 8 8 9 8 7 5 7 9 8 7 6 7 8 8 9 9 9 9 9 8 8 9 9 8 7 6 5 5 5 5 5 5 5 5 5 6 7 8 8 9 9 9 10
7 7 6 9 6 8 9 9 8 8 9 8 9 9 8 6 9 10 11 9 8 9 9 9 10 11 11 11 10 9 9 9 10 9 8 8 6 5 5 4 4 5 5 6 7 7 8 8 9 10 9 9 10 10
10 7 8 8 7 8 8 10 9 9 8 9 9 7 7 9 12 13 11 10 10 10 11 11 12 12 12 12 12 11 10 9 10 10 9 7 6 7 7 7 6 6 5 5 6 7 8 9 10 10 10 10 10 11
10 9 6 4 6 6 7 6 6 8 9 10 9 10 10 14 14 11 9 9 11 11 11 11 13 13 14 12 11 11 10 10 10 10 8 7 7 7 7 8 7 7 6 5 6 7 8 9 10 10 11 11 11 11
7 6 9 7 7 6 8 8 9 9 8 7 8 12 13 14 14 10 10 10 11 12 13 13 13 12 12 11 10 10 10 9 8 7 7 8 8 8 7 7 7 8 7 7 7 7 8 9 10 10 11 11 12 12
7 5 5 9 8 7 7 8 8 6 5 7 10 11 11 9 9 10 11 12 12 14 15 14 14 13 12 11 9 7 8 7 8 8 8 9 9 9 8 8 7 7 7 7 8 7 8 9 9 10 10 10 11 11
7 4 7 8 9 9 6 4 5 4 4 6 7 9 10 10 9 9 11 13 15 15 15 14 14 14 15 14 13 10 7 7 7 8 8 9 9 8 8 8 8 7 7 8 8 8 9 9 10 10 10 11 10 11
5 5 7 7 8 6 5 3 3 4 6 7 8 12 13 13 11 10 12 14 14 15 15 16 16 16 16 16 14 14 9 8 7 7 7 7 7 7 7 7 7 7 7 7 7 8 8 9 9 10 10 10 10 10
5 7 7 9 7 5 4 5 6 7 7 9 11 12 13 14 15 13 12 14 16 17 17 17 18 18 16 15 14 8 9 8 8 7 7 7 7 7 7 7 7 7 7 7 8 8 8 8 9 9 9 10 10 10
6 6 6 7 7 7 6 7 8 9 9 12 13 14 14 16 18 14 13 13 15 16 17 16 16 16 15 13 8 8 8 8 8 8 7 7 7 7 7 7 7 7 8 8 8 8 9 9 10 10 10 11 11 12